Weather History for Fairfield, IL

Change the Weather History Date:

Tuesday, October 9, 2012

  Actual Average (KMVN) Record (KMVN)
Temperature  
Mean Temperature 50 °F -  
Max Temperature 64 °F 68 °F 87 °F (2010)
Min Temperature 37 °F 46 °F 24 °F (2000)
Degree Days  
Heating Degree Days 14    
Moisture  
Dew Point 41 °F    
Average Humidity 72    
Maximum Humidity 93    
Minimum Humidity 42    
Precipitation  
Precipitation 0.00 in - - ()
Sea Level Pressure  
Sea Level Pressure 30.05 in    
Wind  
Wind Speed 4 mph (SSW)    
Max Wind Speed 14 mph    
Max Gust Speed 21 mph    
Visibility 10 miles    
Events      
Averages and records for this station are not official NWS values.
T = Trace of Precipitation, MM = Missing Value Source: NWS Daily Summary

Daily Weather History Graph

Daily Weather History Graph

Search for Another Location

Airport:

Trip Planner

Search our weather history database for the weather conditions in past years. The results will help you decide how hot, cold, wet, or windy it might be!

Date:

Astronomy

Oct. 09, 2012 Rise Set
Actual Time 6:57 AM CDT 6:23 PM CDT
Civil Twilight 6:30 AM CDT 6:50 PM CDT
Nautical Twilight 6:00 AM CDT 7:20 PM CDT
Astronomical Twilight 5:29 AM CDT 7:51 PM CDT
Moon 12:38 AM CDT (10/9) 2:46 PM CDT (10/9)
Length of Visible Light 12h 19m
Length of Day
11h 26m
Last Quarter, 36% of the Moon is Illuminated
Oct 9
Last Quarter
Oct 15
New
Oct 21
First Quarter
Oct 29
Full
Nov 6
Last Quarter

Hourly Weather History & Observations

Time (CDT) Temp. Windchill Dew Point Humidity Pressure Visibility Wind Dir Wind Speed Gust Speed Precip Events Conditions
12:15 AM 39.2 °F - 37.4 °F 93% 30.12 in 10.0 mi Calm Calm - N/A   Clear
12:35 AM 39.2 °F - 37.4 °F 93% 30.12 in 10.0 mi Calm Calm - N/A   Clear
12:55 AM 39.2 °F - 37.4 °F 93% 30.11 in 10.0 mi Calm Calm - N/A   Clear
1:15 AM 39.2 °F - 37.4 °F 93% 30.12 in 10.0 mi Calm Calm - N/A   Clear
1:35 AM 39.2 °F - 37.4 °F 93% 30.12 in 10.0 mi Calm Calm - N/A   Clear
1:55 AM 39.2 °F - 37.4 °F 93% 30.12 in 10.0 mi Calm Calm - N/A   Clear
2:15 AM 39.2 °F - 37.4 °F 93% 30.12 in 10.0 mi Calm Calm - N/A   Clear
2:35 AM 39.2 °F - 35.6 °F 87% 30.12 in 10.0 mi Calm Calm - N/A   Clear
3:15 AM 37.4 °F - 35.6 °F 93% 30.11 in 10.0 mi Calm Calm - N/A   Clear
3:35 AM 37.4 °F - 35.6 °F 93% 30.11 in 10.0 mi Calm Calm - N/A   Clear
3:55 AM 37.4 °F - 35.6 °F 93% 30.11 in 10.0 mi Calm Calm - N/A   Clear
4:15 AM 37.4 °F - 35.6 °F 93% 30.11 in 10.0 mi Calm Calm - N/A   Clear
4:35 AM 37.4 °F - 35.6 °F 93% 30.11 in 10.0 mi Calm Calm - N/A   Clear
4:55 AM 37.4 °F - 35.6 °F 93% 30.11 in 10.0 mi Calm Calm - N/A   Clear
5:15 AM 37.4 °F - 35.6 °F 93% 30.11 in 10.0 mi Calm Calm - N/A   Clear
5:35 AM 37.4 °F - 35.6 °F 93% 30.11 in 10.0 mi Calm Calm - N/A   Clear
5:55 AM 37.4 °F - 35.6 °F 93% 30.11 in 10.0 mi Calm Calm - N/A   Clear
6:15 AM 39.2 °F - 35.6 °F 87% 30.11 in 10.0 mi Calm Calm - N/A   Clear
6:35 AM 37.4 °F - 35.6 °F 93% 30.12 in 10.0 mi Calm Calm - N/A   Clear
6:55 AM 39.2 °F - 35.6 °F 87% 30.12 in 10.0 mi Calm Calm - N/A   Clear
7:15 AM 37.4 °F - 35.6 °F 93% 30.12 in 10.0 mi Calm Calm - N/A   Clear
7:35 AM 39.2 °F - 37.4 °F 93% 30.12 in 10.0 mi Calm Calm - N/A   Clear
7:55 AM 42.8 °F 41.1 °F 39.2 °F 87% 30.12 in 10.0 mi SSW 3.5 mph - N/A   Clear
8:15 AM 44.6 °F 41.4 °F 41.0 °F 87% 30.12 in 10.0 mi South 5.8 mph - N/A   Clear
8:35 AM 46.4 °F 42.9 °F 42.8 °F 87% 30.12 in 10.0 mi South 6.9 mph - N/A   Clear
8:55 AM 48.2 °F - 42.8 °F 82% 30.13 in 10.0 mi South 5.8 mph - N/A   Clear
9:15 AM 50.0 °F - 44.6 °F 82% 30.12 in 10.0 mi SSW 6.9 mph - N/A   Clear
9:35 AM 53.6 °F - 44.6 °F 72% 30.12 in 10.0 mi SSW 8.1 mph - N/A   Clear
9:55 AM 53.6 °F - 44.6 °F 72% 30.12 in 10.0 mi South 8.1 mph - N/A   Clear
10:15 AM 55.4 °F - 44.6 °F 67% 30.12 in 10.0 mi SSW 9.2 mph - N/A   Clear
10:35 AM 57.2 °F - 44.6 °F 63% 30.11 in 10.0 mi SSW 6.9 mph - N/A   Clear
10:55 AM 57.2 °F - 42.8 °F 59% 30.11 in 10.0 mi SW 9.2 mph - N/A   Clear
11:15 AM 59.0 °F - 42.8 °F 55% 30.10 in 10.0 mi SSW 11.5 mph - N/A   Clear
11:35 AM 59.0 °F - 42.8 °F 55% 30.09 in 10.0 mi SSW 12.7 mph - N/A   Clear
11:55 AM 60.8 °F - 42.8 °F 52% 30.08 in 10.0 mi South 10.4 mph 18.4 mph N/A   Clear
12:15 PM 60.8 °F - 42.8 °F 52% 30.07 in 10.0 mi South 13.8 mph - N/A   Clear
12:35 PM 62.6 °F - 42.8 °F 48% 30.06 in 10.0 mi South 13.8 mph 19.6 mph N/A   Clear
12:55 PM 62.6 °F - 42.8 °F 48% 30.05 in 10.0 mi SSW 12.7 mph 18.4 mph N/A   Clear
1:15 PM 62.6 °F - 42.8 °F 48% 30.03 in 10.0 mi SSW 10.4 mph 17.3 mph N/A   Clear
1:35 PM 62.6 °F - 42.8 °F 48% 30.02 in 10.0 mi South 10.4 mph 19.6 mph N/A   Clear
1:55 PM 62.6 °F - 42.8 °F 48% 30.02 in 10.0 mi SW 12.7 mph 19.6 mph N/A   Clear
2:15 PM 62.6 °F - 39.2 °F 42% 30.01 in 10.0 mi SSW 11.5 mph 20.7 mph N/A   Clear
2:35 PM 62.6 °F - 41.0 °F 45% 30.00 in 10.0 mi SSW 10.4 mph 18.4 mph N/A   Clear
2:55 PM 64.4 °F - 42.8 °F 45% 30.00 in 10.0 mi SSW 10.4 mph 19.6 mph N/A   Clear
3:15 PM 62.6 °F - 41.0 °F 45% 29.99 in 10.0 mi SSW 10.4 mph 20.7 mph N/A   Clear
3:35 PM 64.4 °F - 41.0 °F 42% 29.98 in 10.0 mi South 12.7 mph - N/A   Clear
3:55 PM 64.4 °F - 42.8 °F 45% 29.98 in 10.0 mi South 13.8 mph 17.3 mph N/A   Clear
4:15 PM 62.6 °F - 42.8 °F 48% 29.98 in 10.0 mi South 11.5 mph 17.3 mph N/A   Clear
4:35 PM 62.6 °F - 42.8 °F 48% 29.97 in 10.0 mi SSW 11.5 mph - N/A   Clear
4:55 PM 62.6 °F - 42.8 °F 48% 29.97 in 10.0 mi SSW 10.4 mph - N/A   Clear
5:15 PM 62.6 °F - 42.8 °F 48% 29.97 in 10.0 mi SSW 9.2 mph - N/A   Clear
5:35 PM 62.6 °F - 42.8 °F 48% 29.96 in 10.0 mi South 9.2 mph - N/A   Clear
5:55 PM 60.8 °F - 42.8 °F 52% 29.96 in 10.0 mi SSW 8.1 mph - N/A   Clear
6:15 PM 59.0 °F - 44.6 °F 59% 29.95 in 10.0 mi SSW 6.9 mph - N/A   Clear
6:35 PM 57.2 °F - 44.6 °F 63% 29.96 in 10.0 mi SSW 4.6 mph - N/A   Clear
6:55 PM 57.2 °F - 44.6 °F 63% 29.97 in 10.0 mi SSW 5.8 mph - N/A   Clear
7:15 PM 55.4 °F - 44.6 °F 67% 29.97 in 10.0 mi SSW 4.6 mph - N/A   Clear
7:35 PM 55.4 °F - 44.6 °F 67% 29.97 in 10.0 mi SSW 3.5 mph - N/A   Clear
7:55 PM 53.6 °F - 44.6 °F 72% 29.98 in 10.0 mi SSW 3.5 mph - N/A   Clear
8:15 PM 53.6 °F - 44.6 °F 72% 29.98 in 10.0 mi SW 3.5 mph - N/A   Clear
8:35 PM 53.6 °F - 44.6 °F 72% 29.98 in 10.0 mi Calm Calm - N/A   Clear
8:55 PM 51.8 °F - 44.6 °F 76% 29.98 in 10.0 mi SSW 3.5 mph - N/A   Clear
9:15 PM 51.8 °F - 44.6 °F 76% 29.98 in 10.0 mi SSW 3.5 mph - N/A   Clear
9:35 PM 51.8 °F - 44.6 °F 76% 29.98 in 10.0 mi SSW 3.5 mph - N/A   Clear
9:55 PM 51.8 °F - 44.6 °F 76% 29.98 in 10.0 mi SSW 3.5 mph - N/A   Clear
10:15 PM 51.8 °F - 44.6 °F 76% 29.97 in 10.0 mi South 5.8 mph - N/A   Scattered Clouds
10:35 PM 51.8 °F - 46.4 °F 82% 29.96 in 10.0 mi South 6.9 mph - N/A   Mostly Cloudy
10:55 PM 53.6 °F - 46.4 °F 77% 29.96 in 10.0 mi SSW 5.8 mph - N/A   Mostly Cloudy
11:15 PM 53.6 °F - 46.4 °F 77% 29.97 in 10.0 mi WSW 5.8 mph - N/A   Overcast
11:35 PM 53.6 °F - 46.4 °F 77% 29.98 in 10.0 mi SW 5.8 mph - N/A   Overcast
11:55 PM 53.6 °F - 46.4 °F 77% 29.97 in 10.0 mi SSW 4.6 mph - N/A   Overcast